STARLINK-2381, 47800

Orbit data source: Space-Track

STARLINK-2381, 47800 is a payload satellite owned by SpaceX/Seattle (US) in LEO that was launched on Thu, 11 Mar 2021 UTC via an FALCON 9 launch vehicle from the Air Force Eastern Test Range (AFETR). Payload-class satellites include a variety of spacecraft equipped with specific instruments for various scientific and technological missions. These include communications satellites like Starlink; space stations such as the ISS; scientific satellites like the Hubble; Earth observation satellites from companies like Planet Labs, Umbra, and HawkEye 360; GPS; miniature CubeSats for education and research; and military/defense satellites.

Loading next visibility...
Identifier
47800, 2021-018P
Orbit
LEO
Country
Flag of USUS
Related business
Manufacturer
SpaceX/Seattle
Mission
Operational Commercial Communications
Bus & Motor
STARLINK, Unknown motor
Mass
260 kg wet, ~248 kg dry
Launch date (UTC)
2021-03-11 (5 years ago)
Launch vehicle
FALCON 9
Launch site
Air Force Eastern Test Range (AFETR)
Object type
Payload
Rocket body
Debris
Shape & HBR
Box + 1 Pan, 10.1 m
Radar Cross Section
13.562 m², Large (>1 m²)

Expand to show TLE details & history
Last TLE update: 7 hours ago

TLE from 7 hours ago
0 STARLINK-2381
1 47800U 21018P   26120.16667823  .01699245  00000-0  56260-1 0  9997
2 47800  53.1416 359.6208 0001866  91.0579  13.9749 15.27495289  5826
Epoch: 2026-04-30T04:00Z
TLE epoch observation values (Epoch: 2026-04-30T04:00:00.999Z)
Latitude
50.7486°
Longitude
-164.3478°
Altitude
488.051 km
Speed
7.628 km/s
True Right ascension
07h 35m 05s
True Declination
50° 34' 24"
Sunlit
Object was in daylight at epoch
Visualization orbit readout
Latitude
Unknown
Longitude
Unknown
Altitude
Unknown
Speed
Unknown
Apparent Right ascension
Unknown
Apparent Declination
Unknown
Sunlit
N/A
Visualization observer readout
Local Sidereal Time
18:58:35
Azimuth
Unknown
Elevation
Unknown
Doppler factor
Unknown
Orbital elements
Apogee altitude
484.842 km
Perigee altitude
482.281 km
Semi-major axis
6,861.699 km
Eccentricity
0.00019
Inclination
53.1416°
RAAN
359.6208°
Arg. of periapsis
91.0579°
True anomaly
13.98007°
Mean anomaly
13.9749°
Eccentric anomaly
13.97748°
Mean motion
3.81853 °/min
Orbital period
94.28 mins
BSTAR
0.05626
Loading maneuver chart data...
Computing Atmospheric mass density...
Loading historical data...
Loading historical data...
Loading historical data...
Loading historical data...
Loading historical data...
Loading historical data...
Loading historical data...

Documentation

Showing up to 5 results
|